sat.trackr.live / text

‹ back to catalog

YAOGAN-43 02C

NORAD 60947 · 2024-156C

PAYLOAD ACTIVE UNKNOWN

§ Identity

Operator
Country
PRC
Launch date
2024-09-03
Launch site
XICLF
Launch vehicle
Mass (kg)
RCS (m²)

External: N2YO · Heavens-Above · Gunter

§ Orbital elements

Epoch: 2026-09-22T12:31:25.313664Z

Period
94.55 min
Inclination
34.9987°
Eccentricity
0.0002938
Mean motion
15.22980893 rev/d
Perigee alt
494.8 km
Apogee alt
498.9 km
Semi-major
6,875.0 km
B*
8.5669e-5
RAAN
305.9891°
Arg perigee
194.8299°
Mean anomaly
165.2330°
Rev number
11,429

§ Raw data

YAOGAN-43 02C1 60947U 24156C   26265.52182076  .00002026  00000+0  85669-4 0  99932 60947  34.9987 305.9891 0002938 194.8299 165.2330 15.22980893114291

JSON: /api/v1/satellites/60947 · /tle

For live sub-satellite position, see the globe view (requires WebGL).

§ Visibility from observer

Set your observer location to see the next 7 days of passes ≥ 10°. The values pass through the URL so the page stays shareable.

No JS? Fill the form by hand. The geolocation button needs JavaScript.